TimeEDT,TemperatureF,Dew PointF,Humidity,Sea Level PressureIn,VisibilityMPH,Wind Direction,Wind SpeedMPH,Gust SpeedMPH,PrecipitationIn,Events,Conditions,WindDirDegrees,DateUTC
12:15 AM,68.0,55.4,64,30.02,10.0,SW,8.1,-,N/A,,Clear,220,2013-04-11 04:15:00
12:35 AM,66.2,55.4,68,30.02,10.0,SW,9.2,-,N/A,,Clear,220,2013-04-11 04:35:00
12:55 AM,66.2,55.4,68,30.02,10.0,SSW,9.2,-,N/A,,Clear,210,2013-04-11 04:55:00
1:15 AM,64.4,55.4,73,30.02,10.0,SSW,9.2,-,N/A,,Clear,210,2013-04-11 05:15:00
1:35 AM,64.4,55.4,73,30.00,10.0,SSW,8.1,-,N/A,,Clear,210,2013-04-11 05:35:00
1:55 AM,64.4,57.2,77,30.00,10.0,SSW,8.1,-,N/A,,Clear,210,2013-04-11 05:55:00
2:15 AM,64.4,57.2,77,30.00,10.0,SW,5.8,-,N/A,,Clear,220,2013-04-11 06:15:00
2:35 AM,64.4,59.0,83,30.00,10.0,SW,8.1,-,N/A,,Clear,220,2013-04-11 06:35:00
2:55 AM,64.4,59.0,83,30.00,10.0,SW,9.2,-,N/A,,Clear,230,2013-04-11 06:55:00
3:15 AM,62.6,59.0,88,30.00,10.0,SW,9.2,-,N/A,,Clear,220,2013-04-11 07:15:00
3:35 AM,62.6,59.0,88,30.00,10.0,WSW,6.9,-,N/A,,Clear,240,2013-04-11 07:35:00
3:55 AM,62.6,59.0,88,29.99,10.0,SW,8.1,-,N/A,,Clear,230,2013-04-11 07:55:00
4:15 AM,62.6,59.0,88,29.99,10.0,SW,5.8,-,N/A,,Clear,230,2013-04-11 08:15:00
4:35 AM,62.6,59.0,88,30.00,10.0,SW,4.6,-,N/A,,Clear,230,2013-04-11 08:35:00
4:55 AM,60.8,59.0,94,30.00,10.0,SW,4.6,-,N/A,,Clear,220,2013-04-11 08:55:00
5:15 AM,62.6,60.8,94,30.00,10.0,SW,5.8,-,N/A,,Clear,220,2013-04-11 09:15:00
5:35 AM,62.6,60.8,94,30.00,10.0,SW,8.1,-,N/A,,Clear,220,2013-04-11 09:35:00
5:55 AM,62.6,60.8,94,30.00,10.0,SW,5.8,-,N/A,,Clear,220,2013-04-11 09:55:00
6:15 AM,62.6,60.8,94,30.00,10.0,SW,4.6,-,N/A,,Clear,230,2013-04-11 10:15:00
6:35 AM,62.6,60.8,94,30.00,10.0,SW,4.6,-,N/A,,Clear,230,2013-04-11 10:35:00
6:55 AM,62.6,60.8,94,30.01,10.0,SW,6.9,-,N/A,,Clear,230,2013-04-11 10:55:00
7:15 AM,62.6,60.8,94,30.01,10.0,SW,8.1,-,N/A,,Clear,220,2013-04-11 11:15:00
7:35 AM,62.6,60.8,94,30.02,10.0,WSW,6.9,-,N/A,,Clear,240,2013-04-11 11:35:00
7:55 AM,64.4,62.6,94,30.03,10.0,WSW,9.2,-,N/A,,Scattered Clouds,240,2013-04-11 11:55:00
8:15 AM,64.4,62.6,94,30.03,10.0,WSW,10.4,-,N/A,,Mostly Cloudy,240,2013-04-11 12:15:00
8:35 AM,66.2,62.6,88,30.03,10.0,WSW,10.4,16.1,N/A,,Mostly Cloudy,250,2013-04-11 12:35:00
8:55 AM,68.0,62.6,83,30.03,10.0,WSW,11.5,17.3,N/A,,Mostly Cloudy,240,2013-04-11 12:55:00
9:35 AM,69.8,62.6,78,30.03,10.0,WSW,15.0,20.7,N/A,,Scattered Clouds,250,2013-04-11 13:35:00
9:55 AM,71.6,62.6,73,30.03,10.0,WSW,18.4,24.2,N/A,,Scattered Clouds,240,2013-04-11 13:55:00
10:15 AM,73.4,62.6,69,30.03,10.0,SW,11.5,18.4,N/A,,Scattered Clouds,230,2013-04-11 14:15:00
10:35 AM,73.4,62.6,69,30.03,10.0,WSW,15.0,27.6,N/A,,Scattered Clouds,240,2013-04-11 14:35:00
10:55 AM,73.4,62.6,69,30.03,10.0,WSW,10.4,21.9,N/A,,Scattered Clouds,240,2013-04-11 14:55:00
11:15 AM,77.0,62.6,61,30.02,10.0,SW,13.8,24.2,N/A,,Scattered Clouds,230,2013-04-11 15:15:00
11:35 AM,77.0,60.8,57,30.02,10.0,SW,15.0,26.5,N/A,,Scattered Clouds,230,2013-04-11 15:35:00
11:55 AM,77.0,60.8,57,30.00,10.0,WSW,18.4,27.6,N/A,,Scattered Clouds,240,2013-04-11 15:55:00
12:15 PM,78.8,60.8,54,30.00,10.0,SW,19.6,27.6,N/A,,Scattered Clouds,220,2013-04-11 16:15:00
12:35 PM,80.6,59.0,48,30.00,10.0,WSW,21.9,27.6,N/A,,Scattered Clouds,240,2013-04-11 16:35:00
12:55 PM,80.6,59.0,48,29.99,10.0,West,9.2,24.2,N/A,,Scattered Clouds,270,2013-04-11 16:55:00
1:15 PM,80.6,59.0,48,29.98,10.0,SW,15.0,19.6,N/A,,Scattered Clouds,230,2013-04-11 17:15:00
1:35 PM,80.6,59.0,48,29.96,10.0,WSW,17.3,21.9,N/A,,Scattered Clouds,250,2013-04-11 17:35:00
1:55 PM,80.6,59.0,48,29.96,10.0,WSW,10.4,21.9,N/A,,Mostly Cloudy,250,2013-04-11 17:55:00
2:15 PM,80.6,59.0,48,29.95,10.0,WSW,9.2,-,N/A,,Mostly Cloudy,250,2013-04-11 18:15:00
2:35 PM,84.2,59.0,42,29.94,10.0,SW,10.4,23.0,N/A,,Scattered Clouds,230,2013-04-11 18:35:00
2:55 PM,82.4,59.0,45,29.93,10.0,WSW,17.3,24.2,N/A,,Mostly Cloudy,240,2013-04-11 18:55:00
3:15 PM,82.4,59.0,45,29.91,10.0,SW,13.8,19.6,N/A,,Mostly Cloudy,220,2013-04-11 19:15:00
3:35 PM,82.4,59.0,45,29.90,10.0,SW,18.4,26.5,N/A,,Scattered Clouds,220,2013-04-11 19:35:00
3:55 PM,82.4,59.0,45,29.89,10.0,WSW,15.0,21.9,N/A,,Scattered Clouds,240,2013-04-11 19:55:00
4:15 PM,82.4,59.0,45,29.88,10.0,SW,9.2,17.3,N/A,,Overcast,220,2013-04-11 20:15:00
4:35 PM,82.4,59.0,45,29.88,10.0,SW,11.5,18.4,N/A,,Overcast,220,2013-04-11 20:35:00
4:55 PM,82.4,59.0,45,29.87,10.0,SW,12.7,17.3,N/A,,Overcast,220,2013-04-11 20:55:00
5:15 PM,82.4,59.0,45,29.87,10.0,SSW,12.7,-,N/A,,Mostly Cloudy,210,2013-04-11 21:15:00
5:35 PM,82.4,59.0,45,29.87,10.0,SW,11.5,-,N/A,,Scattered Clouds,230,2013-04-11 21:35:00
5:55 PM,82.4,59.0,45,29.87,10.0,SW,8.1,12.7,N/A,,Scattered Clouds,220,2013-04-11 21:55:00
6:15 PM,80.6,59.0,48,29.87,10.0,SW,11.5,-,N/A,,Scattered Clouds,220,2013-04-11 22:15:00
6:35 PM,80.6,60.8,51,29.87,10.0,SSW,10.4,-,N/A,,Mostly Cloudy,200,2013-04-11 22:35:00
6:55 PM,80.6,64.4,58,29.87,10.0,South,9.2,-,N/A,,Mostly Cloudy,180,2013-04-11 22:55:00
7:15 PM,78.8,64.4,61,29.88,10.0,South,12.7,-,N/A,,Mostly Cloudy,170,2013-04-11 23:15:00
7:35 PM,77.0,66.2,69,29.88,10.0,South,11.5,18.4,N/A,,Mostly Cloudy,180,2013-04-11 23:35:00
7:55 PM,77.0,66.2,69,29.88,10.0,South,13.8,18.4,N/A,,Scattered Clouds,180,2013-04-11 23:55:00
8:15 PM,75.2,64.4,69,29.87,10.0,South,11.5,-,N/A,,Clear,190,2013-04-12 00:15:00
8:35 PM,73.4,64.4,73,29.88,10.0,South,11.5,19.6,N/A,,Clear,190,2013-04-12 00:35:00
8:55 PM,73.4,64.4,73,29.88,10.0,South,11.5,-,N/A,,Clear,190,2013-04-12 00:55:00
9:15 PM,73.4,64.4,73,29.88,10.0,South,12.7,-,N/A,,Clear,190,2013-04-12 01:15:00
9:35 PM,73.4,64.4,73,29.89,10.0,SSW,11.5,19.6,N/A,,Clear,200,2013-04-12 01:35:00
9:55 PM,71.6,64.4,78,29.90,10.0,SSW,11.5,17.3,N/A,,Clear,200,2013-04-12 01:55:00
10:15 PM,71.6,64.4,78,29.90,10.0,SSW,12.7,17.3,N/A,,Clear,200,2013-04-12 02:15:00
10:35 PM,71.6,64.4,78,29.90,10.0,SSW,12.7,-,N/A,,Clear,210,2013-04-12 02:35:00
10:55 PM,71.6,64.4,78,29.89,10.0,SSW,10.4,-,N/A,,Clear,210,2013-04-12 02:55:00
11:15 PM,71.6,64.4,78,29.89,10.0,SSW,13.8,20.7,N/A,,Mostly Cloudy,200,2013-04-12 03:15:00
11:35 PM,71.6,64.4,78,29.89,10.0,SSW,12.7,21.9,N/A,,Mostly Cloudy,200,2013-04-12 03:35:00
11:55 PM,71.6,64.4,78,29.89,10.0,SSW,12.7,-,N/A,,Scattered Clouds,200,2013-04-12 03:55:00